Location: Audinghen
(50.8518°N, 1.6129°E)
Time: 17:00:01
(UTC+00:00)

Cosmos 1455 Rocket - Pass Details

Date: 07 August 2020
Orbit: 604 x 630 km, 82.5° (Epoch: 25 September)

Event Time Altitude Azimuth Distance (km) Brightness Sun altitude
Exits shadow 03:11:32 14° 212° (SSW) 1,725 4.7 -10.8°
Maximum altitude 03:15:07 49° 285° (WNW) 809 3.4 -10.4°
Drops below altitude 10° 03:19:28 10° 1° (N) 2,018 6.3 -9.9°
Sets 03:21:47 0° 7° (N) 2,933 7.3 -9.6°
